Regional Weather Roundup
Issued by NWS

Home | Current Version | Previous Version | Text Only | Print | Product List | Glossary Off
Versions: 1 2 3 4 5 6 7 8 9 10 11 12 13 14 15 16 17 18 19 20 21 22 23 24 25 26 27

000
ASUS45 KSLC 282310
RWRUT

UTAH REGIONAL WEATHER ROUNDUP
NATIONAL WEATHER SERVICE SALT LAKE CITY UT
500 PM MDT TUE MAR 28 2017

UTZ001>011-023>025-290000-

NORTHERN UTAH

CITY           SKY/WX    TMP DP  RH WIND       PRES   REMARKS
BRIGHAM CITY     N/A     54  28  36 N17       30.15R
DUGWAY         PTSUNNY   49  31  48 N15G22    30.16R
HILL AFB       PTSUNNY   51  27  38 N18       30.14R
LOGAN          PTSUNNY   53  29  39 N12       30.15R
OGDEN          CLOUDY    51  28  41 NW16G26   30.13R
SALT LAKE CITY MOSUNNY   54  31  41 NW20G26   30.14R
TOOELE VALLEY  SUNNY     52  32  46 N15       30.18R
WENDOVER       SUNNY     56  20  24 N9        30.17S
HEBER CITY     CLOUDY    50  25  37 N12       30.09R
WEST JORDAN    SUNNY     53  40  61 W20G26    30.14S

$$

UTZ011>015-024>027-290000-

CENTRAL/NORTHEAST UTAH

CITY           SKY/WX    TMP DP  RH WIND       PRES   REMARKS
PROVO AIRPORT  SUNNY     52  34  50 NW26G35   30.11S
MOAB/CANYONLAN CLOUDY    58  31  35 NE13      29.90F
DELTA          MOSUNNY   50  32  50 N18G26    30.13S
PRICE          SUNNY     51  28  41 NW21G28   29.99R
RICHFIELD      CLOUDY    50  28  43 NW15      30.12S
ROOSEVELT      CLOUDY    54  32  43 SE5       30.00R
VERNAL         PTSUNNY   52  29  41 N15G25    30.02R

$$

UTZ013>016-019>022-027-290000-

SOUTHERN UTAH

CITY           SKY/WX    TMP DP  RH WIND       PRES   REMARKS
BRYCE CANYON   SUNNY     46  20  35 NW12G20   30.03S
CEDAR CITY     MOSUNNY   49  27  42 N20G29    30.09S
MILFORD        PTSUNNY   49  33  54 N16       30.12S
ST GEORGE      PTCLDY    65  25  22 NE17G23   29.99F
HANKSVILLE     CLOUDY    61  27  27 NW20G25   29.93S
KANAB          SUNNY     61  21  21 N14G23    30.01S
BLANDING       CLOUDY    46  34  63 NW16G24   29.95R

$$

REGIONAL REPORTS     COLORADO/ARIZONA

CITY           SKY/WX    TMP DP  RH WIND       PRES   REMARKS
CRAIG, CO      LGT RAIN  45  33  63 N18G31    29.95R
GRAND JUNCTION CLOUDY    53  38  56 N13       29.90S
RIFLE, CO      CLOUDY    47  37  68 NW14      29.90S
MONTROSE, CO   CLOUDY    48  38  68 NW22G28   29.89S
CORTEZ, CO     CLOUDY    48  39  71 NW12      29.84R
COLORADO CITY    N/A     59  27  29 NW22G28   30.03S
PAGE, AZ       CLOUDY    65  25  22 N10       29.88S
GRAND CANYON   MOSUNNY   53  24  32 N10       29.97S
KINGMAN, AZ    SUNNY     65   3   8 N18G28    29.98S
FLAGSTAFF, AZ  MOSUNNY   49  23  36 N10       29.96R

$$

REGIONAL REPORTS    NEVADA/IDAHO/WYOMING

CITY           SKY/WX    TMP DP  RH WIND       PRES   REMARKS
LAS VEGAS, NV  MOSUNNY   72  11   9 N16G22    29.99F
ELY, NY        SUNNY     49  25  39 N13G21    30.17S
ELKO, NV       SUNNY     51  23  33 VRB5      30.22S
POCATELLO, ID  MOSUNNY   49  29  46 W14       30.19F
BURLEY, ID     SUNNY     51  23  33 W13       30.19S
EVANSTON, WY   MOSUNNY   43  22  43 NW18G26   30.12R
ROCK SPRINGS,  CLOUDY    40  31  70 N7        30.08R
KEMMERER, WY     N/A     41  27  56 W20       30.10S

$$




USA.gov is the U.S. government's official web portal to all federal, state and local government web resources and services.